カタログに戻る

FENGYUN 1C DEB

運用中LEO
NORAD 31880·DEBRIS·🇨🇳 China

打ち上げ May 10, 1999 から Taiyuan Satellite Launch Center

Loading…

次のパス (今後24時間)

TLE

最新Source: Space-Track

元期: Sep 14, 2026, 07:33 UTC

1 31880U 99025CKF 26257.31495150  .00000609  00000-0  50239-3 0  9992
2 31880 100.0441  86.5755 0127244 148.0187 212.8771 13.89844199668078

AllMySatでFENGYUN 1C DEBをリアルタイム追跡

Download on the App Store